STARLINK-1550 (46365 NORAD) Tracking and Keplerian Element Data

This shows tracking and keplerian element data for the satellite.

Feedback or suggestion? Click here.




ElementValue
Catalog46365
NameSTARLINK-1550
Epoch Orbit178
Epoch Day268.91668981
Epoch Year2020
RAAN324.4578
Inclination53.0004
Eccentricity0.0001372
Argument of Perigee54.5863
Mean Anonmoly169.5827
Mean Motion15.62768521
Decay Rate-0.00047264
L11 46365U 20062AS 20268.91668981 -.00047264 00000-0 -51301-3 0 9998
L22 46365 53.0004 324.4578 0001372 54.5863 169.5827 15.62768521 1782

Live tracking and technical data element details for STARLINK-1550 (NORAD 46365). STARLINK-1550 can be tracked NOW for your location showing map with azimuth and elevation plus other details from your city location.

Track the satellite on the map from your city or location and see movement details for azimuth, elevation, latitude, longitude, range, height, and movement on the map or in text.







IsCatalogInMostPopularTable: catalog: 46365, numindb: 1
Update: records affected: 1



GetName: 46365 STARLINK-1550

Hit Count: updated at: Mon, 28 Sep 2020 16:25:16 GMT